OneWeb SL0546

operational
NORAD ID: 56048 Int'l Des: 2023-043 Owner: ONEWEBN Country: UK Constellation: oneweb
LEOCIRCULARPOLARONEWEB_TYPE

OneWeb SL0546について

説明を読み込み中...

リアルタイム位置

3D地球を読み込み中...

次回通過

高度履歴

Altitude vs Time

uPlot chart will show altitude changes over time

軌道要素

1 56048U 23043C 25353.21478725 .00000180 00000-0 43669-3 0 9999
2 56048 87.9059 264.6031 0001130 93.1786 266.9474 13.16597006135289
Epoch: Dec 19, 2025 • Age: 7 hours

現在のステータス

高度 1227.2 km
速度 7.24 km/s
衛星直下点 -83.28°S, 22.19°W
打ち上げ日 Mar 26, 2023
運用期間 2.7 years
タイプ internet

技術仕様

分類 Payload
質量 148.00 kg
乾燥質量 140.00 kg
総質量 148.00 kg
長さ 1.30 m
直径 1.00 m
スパン 5.00 m
形状 Trapezoid+2 pan
製造者 ONEWUS
バスタイプ ARROW
フェーズステータス In Orbit
所有者/国 ONEWEBN/UK

大規模コンステレーション

Loading constellations...